This is the latest recevied weather packets stored in our database for station/object N5KJT. If no packets are shown the sender has not sent any weather packets the latest 10 day(s).
| Time | Temp. | Humidity | Pressure | Rain* | Wind** | Luminosity | Snow |
|---|---|---|---|---|---|---|---|
| 1788018016 | 26.11° C | 41% | 1028.1 hPa | 0 mm | - | 627 W/m² | - |
| 1788017716 | 26.11° C | 41% | 1028.1 hPa | 0 mm | - | 449 W/m² | - |
| 1788017416 | 26.11° C | 42% | 1028.2 hPa | 0 mm | - | 626 W/m² | - |
| 1788017116 | 25.56° C | 43% | 1028.1 hPa | 0 mm | - | 474 W/m² | - |
| 1788016816 | 25.56° C | 44% | 1028.1 hPa | 0 mm | - | 523 W/m² | - |
| 1788016516 | 25° C | 44% | 1028.1 hPa | 0 mm | - | 675 W/m² | - |
| 1788016216 | 24.44° C | 46% | 1028.1 hPa | 0 mm | - | 684 W/m² | - |
| 1788015916 | 23.89° C | 46% | 1028 hPa | 0 mm | - | 626 W/m² | - |
| 1788015616 | 23.33° C | 48% | 1028 hPa | 0 mm | - | 552 W/m² | - |
| 1788015316 | 23.33° C | 49% | 1028.1 hPa | 0 mm | - | 480 W/m² | - |
| 1788015015 | 22.78° C | 49% | 1028.1 hPa | 0 mm | - | 447 W/m² | - |
| 1788014716 | 22.22° C | 50% | 1028.1 hPa | 0 mm | - | 427 W/m² | - |
| 1788014416 | 21.67° C | 52% | 1028.1 hPa | 0 mm | - | 429 W/m² | - |
| 1788014116 | 21.11° C | 55% | 1028.2 hPa | 0 mm | - | 430 W/m² | - |
| 1788013816 | 20.56° C | 57% | 1028.2 hPa | 0 mm | - | 408 W/m² | - |
| 1788013516 | 20° C | 59% | 1028.3 hPa | 0 mm | - | 385 W/m² | - |
| 1788013216 | 19.44° C | 61% | 1028.3 hPa | 0 mm | - | 360 W/m² | - |
| 1788012915 | 18.89° C | 63% | 1028.3 hPa | 0 mm | - | 337 W/m² | - |
| 1788012615 | 18.89° C | 65% | 1028.2 hPa | 0 mm | - | 310 W/m² | - |
| 1788012315 | 17.78° C | 68% | 1028.2 hPa | 0 mm | - | 284 W/m² | - |
| 1788012015 | 17.22° C | 70% | 1028.2 hPa | 0 mm | - | 257 W/m² | - |
| 1788011715 | 16.67° C | 73% | 1028.2 hPa | 0 mm | - | 233 W/m² | - |
| 1788011415 | 16.11° C | 76% | 1028.1 hPa | 0 mm | - | 210 W/m² | - |
| 1788011115 | 15.56° C | 78% | 1028 hPa | 0 mm | - | 183 W/m² | - |
| 1788010815 | 15° C | 79% | 1027.9 hPa | 0 mm | - | 146 W/m² | - |
* Rain latest hour (hover to see other rain measurements)
** Current wind speed in m/s (hover to see current wind gust speed)